Weather in Kukushtan

Russia / Perm Krai     57°38′50″N   56°30′00″E
temp.,
°C
wind,
m/s
gust,
m/s
humid.,
%
clouds,
%
prec.,
mm/h
press.,
hPa
HPBL,
m
28 february, sun
sun2823:00−17ese51194100 0.9 1009566
02:00−17e41094100 0.3 1008492
05:00−17e51094100 0.4 1008499
08:00−17e41094100 0.2 1008511
11:00−15e5992100 0.6 1009551
14:00−14ene4889100 0.3 1009602
17:00−13ene4791100 0.4 1010611
20:00−15ene4894100 0.3 1012472
1 march, mon
mon123:00−17ene389598 0.4 1013361
02:00−17ne279789 0.1 1015283
05:00−18nne269792 0.3 1016203
08:00−20ne249985 0.1 101788
11:00−17ene239175 0.1 1019296
14:00−12ene118396 0.0 1017465
17:00−12nnw018498 0.0 1017467
20:00−17s119699 0.0 101620
2 march, tue
tue223:00−18ssw229878 0.0 101620
02:00−20ssw239835 0.0 101451
05:00−20s379848 0.0 1012166
08:00−18s41093100 0.0 1009378
11:00−16s5991100 0.0 1007378
14:00−13s51092100 0.6 1005503
17:00−12s51093100 1.2 1003551
20:00−13s4994100 0.9 1002579
3 march, wed
wed323:00−12s3895100 1.6 1001509
02:00−12s3795100 0.6 1000396
05:00−12sse3795100 1.0 999293
08:00−12sse2596100 0.6 998223
11:00−10s1291100 1.0 998242
14:00−6wsw0187100 0.2 998433
17:00−6nw2390100 0.3 998415
20:00−8wnw1197100 0.3 99821
4 march, thu
thu423:00−9nw4994100 0.6 1001384
02:00−12wnw259790 0.0 1001124
05:00−13wnw369792 0.1 1002151
08:00−14wnw389794 0.0 1003185
11:00−10wnw379293 0.1 1003344
14:00−7w468592 0.0 1003769
17:00−7wsw478696 0.1 1003766
20:00−9ssw41291100 0.0 1001563